Flag for United Kingdom

Past Weather in Enfield, England, United Kingdom — Yesterday and Last 2 Weeks

Now
68 °F

Scattered clouds.


Feels Like: 68 °F
Forecast: 69 / 54 °F
Wind: 22 mph from West

Location: Northolt

Current Time: Jul 5, 2020 at 12:33:20 pm

Latest Report: Jul 5, 2020 at 11:50 am


Visibility: N/A

Pressure: 29.83 "Hg

Humidity: 49%

Dew Point: 48 °F

Location of EnfieldLocation

Past Weather in Enfield — Graph

°F

Enfield Temperature Yesterday

Maximum temperature yesterday: 70 °F (at 3:50 pm)
Minimum temperature yesterday: 59 °F (at 12:50 am)
Average temperature yesterday: 64 °F

High & Low Weather Summary for the Past Weeks

 TemperatureHumidityPressure
High90 °F (Jun 25, 1:50 pm)100% (Jun 21, 7:50 am)30.27 "Hg (Jun 21, 7:50 am)
Low50 °F (Jun 22, 3:50 am)31% (Jun 24, 4:20 pm)29.62 "Hg (Jun 27, 10:50 am)
Average66 °F66%29.91 "Hg
* Reported Jun 20 10:19 am — Jul 5 10:50 am, Enfield. Weather by CustomWeather, © 2020

Note: Actual official high and low records may vary slightly from our data, if they occured in-between our weather recording intervals... More about our weather records

Enfield Weather History for the Previous 24 Hours

Scroll right to see more
 ConditionsComfort  
Time TempWeatherWind HumidityBarometerVisibility
10:50 am
Sun, Jul 5
68 °FScattered clouds.22 mph53%29.83 "HgN/A
9:50 am66 °FPartly sunny.22 mph60%29.83 "HgN/A
8:50 am64 °FBroken clouds.22 mph68%29.80 "HgN/A
7:50 am63 °FPartly sunny.16 mph88%29.80 "HgN/A
7:28 am63 °FPartly sunny.17 mph88%29.77 "HgN/A
6:50 am63 °FOvercast.18 mph88%29.77 "HgN/A
5:50 am63 °FPartly sunny.16 mph88%29.77 "HgN/A
4:50 am63 °FOvercast.17 mph88%29.77 "HgN/A
3:50 am63 °FOvercast.21 mph88%29.77 "HgN/A
2:50 am63 °FPassing clouds.16 mph88%29.77 "HgN/A
1:50 am63 °FOvercast.16 mph88%29.80 "HgN/A
12:50 am63 °FOvercast.18 mph88%29.80 "HgN/A
11:50 pm
Sat, Jul 4
64 °FPassing clouds.15 mph83%29.80 "HgN/A
10:50 pm64 °FPartly cloudy.14 mph83%29.83 "HgN/A
9:50 pm64 °FPassing clouds.14 mph88%29.83 "HgN/A
8:50 pm64 °FDrizzle. Mostly cloudy.13 mph88%29.83 "Hg5 mi
7:50 pm64 °FDrizzle. Mostly cloudy.12 mph88%29.83 "Hg5 mi
6:50 pm66 °FMostly cloudy.16 mph83%29.83 "HgN/A
5:50 pm66 °FOvercast.14 mph83%29.83 "HgN/A
4:50 pm68 °FOvercast.16 mph78%29.83 "HgN/A
3:50 pm70 °FMostly cloudy.18 mph73%29.83 "HgN/A
2:50 pm68 °FPartly sunny.17 mph78%29.83 "HgN/A
1:50 pm68 °FPartly sunny.15 mph73%29.83 "HgN/A
12:50 pm68 °FMostly cloudy.17 mph73%29.83 "HgN/A
Weather by CustomWeather, © 2020

See weather overview